Torna al catalogo

FENGYUN 1C DEB

AttivoSSO
NORAD 32332·DEBRIS·🇨🇳 China

Lanciato May 10, 1999 da Taiyuan Satellite Launch Center

Loading…

Prossimi Passaggi (prossime 24 ore)

TLE

AggiornatoSource: Space-Track

Epoca: Sep 13, 2026, 10:43 UTC

1 32332U 99025CXZ 26256.44688091  .00001731  00000-0  88853-3 0  9996
2 32332  99.1139 314.0819 0281178 278.0846  78.8509 13.98332688968747

Traccia FENGYUN 1C DEB in tempo reale con AllMySat

Download on the App Store